Powrót do katalogu

STARLINK-4275

AktywnyŁącznośćVLEO
NORAD 53008·PAYLOAD·🇺🇸 United States

Wystrzelony Jul 7, 2022 z Cape Canaveral Space Force Station

Loading…

Następne Przeloty (najbliższe 24 godziny)

TLE

ŚwieżeSource: CelesTrak SupGP

Epoka: Sep 14, 2026, 14:02 UTC

1 53008C 22076Y   26257.58520833  .00052669  00000+0  15069-2 0  2576
2 53008  53.1577 311.3787 0001079  82.6414  33.6616 15.35372754    16

Śledź STARLINK-4275 w czasie rzeczywistym z AllMySat

Download on the App Store